DW8913 Weather Reports


Display with metric or nautical units.
time (UTC)temp
F
wind
direction
speed
MPH
gust
MPH
rain 1hr
in
rain 24hr
in
rain mn
in
humidity
%
barometer
mb
20260904134530 82 269 1.0 5.0 0.00 0.10 0.09 74 1011.4
20260904133104 82 76 1.0 5.0 0.00 0.10 0.09 75 1011.4
20260904131532 80 231 2.0 5.0 0.00 0.10 0.09 78 1011.5
20260904130008 79 356 1.0 7.0 0.00 0.10 0.09 80 1011.5
20260904124544 78 158 1.0 7.0 0.00 0.12 0.09 82 1011.4
20260904123014 77 51 1.0 7.0 0.00 0.12 0.09 86 1011.5
20260904121554 75 172 2.0 7.0 0.00 0.12 0.09 89 1011.5
20260904120038 75 44 2.0 6.0 0.00 0.12 0.09 91 1011.6
20260904114501 74 277 1.0 5.0 0.00 0.12 0.09 91 1011.4
20260904113044 74 172 1.0 4.0 0.00 0.12 0.09 91 1011.5
20260904111513 74 130 0.0 3.0 0.00 0.12 0.09 92 1011.2
20260904110052 74 43 0.0 2.0 0.00 0.12 0.09 92 1011.3
20260904104534 74 51 0.0 2.0 0.00 0.21 0.09 92 1010.8
20260904103105 74 43 0.0 2.0 0.00 0.21 0.09 92 1010.8
20260904101539 74 105 0.0 2.0 0.00 0.21 0.09 91 1011.0
20260904100003 75 185 0.0 3.0 0.00 0.21 0.09 91 1010.9
20260904094554 75 252 0.0 3.0 0.00 0.39 0.09 91 1011.1
20260904093111 75 296 0.0 3.0 0.00 0.39 0.09 90 1011.0
20260904091539 75 172 0.0 4.0 0.00 0.39 0.09 89 1011.2
20260904090014 75 57 0.0 3.0 0.00 0.39 0.09 88 1011.1
20260904084545 75 96 1.0 7.0 0.00 0.46 0.09 88 1011.3
20260904083019 75 64 1.0 5.0 0.01 0.46 0.09 90 1011.5
20260904081559 75 33 1.0 4.0 0.07 0.46 0.09 90 1011.5
20260904080030 75 60 0.0 5.0 0.08 0.46 0.09 90 1011.5
20260904074610 75 25 0.0 3.0 0.09 1.19 0.09 90 1011.7
20260904073035 75 243 0.0 4.0 0.08 1.18 0.08 88 1011.8
20260904071501 76 81 2.0 7.0 0.01 1.11 0.01 85 1011.7
20260904070044 77 72 1.0 6.0 0.01 1.11 0.01 85 1011.3
20260904064508 78 111 1.0 5.0 0.00 1.10 0.00 85 1011.3
20260904063053 79 300 3.0 12.0 0.00 1.10 0.00 89 1011.2
20260904061527 79 160 0.0 2.0 0.00 1.10 0.00 91 1011.0
20260904060116 79 151 0.0 0.0 0.00 1.10 0.00 90 1011.1
20260904054523 79 136 0.0 2.0 0.00 1.10 0.00 90 1011.0
20260904053148 79 160 0.0 2.0 0.00 1.10 0.00 90 1011.3
20260904051545 79 168 0.0 0.0 0.00 1.10 0.00 89 1011.3
20260904050023 79 157 0.0 0.0 0.00 1.10 0.00 89 1011.8
20260904044600 79 120 0.0 0.0 0.00 1.10 0.00 88 1011.3
20260904043020 79 186 0.0 0.0 0.00 1.10 0.00 87 1011.7
20260904041609 79 101 0.0 0.0 0.00 1.10 0.00 87 1011.8
20260904040049 79 169 0.0 3.0 0.00 1.10 0.00 87 1012.2
20260904034518 79 159 0.0 1.0 0.00 1.10 1.10 87 1012.4
20260904033104 79 73 0.0 1.0 0.00 1.10 1.10 86 1012.6
20260904031525 79 166 0.0 2.0 0.00 1.10 1.10 86 1012.7
20260904024533 78 157 0.0 0.0 0.00 1.10 1.10 86 1012.3
20260904023113 78 158 0.0 1.0 0.00 1.10 1.10 86 1012.3
20260904021541 78 55 0.0 0.0 0.00 1.10 1.10 86 1012.6
20260904020009 78 56 0.0 0.0 0.00 1.10 1.10 86 1012.9
20260904014605 78 21 0.0 0.0 0.00 1.10 1.10 86 1013.0
20260904013028 79 20 0.0 0.0 0.00 1.10 1.10 85 1013.1
20260904011610 79 20 0.0 0.0 0.00 1.10 1.10 84 1013.2
20260904010045 79 24 0.0 0.0 0.00 1.10 1.10 84 1013.4
20260904004513 80 339 0.0 0.0 0.00 1.10 1.10 83 1013.4
20260904003052 80 343 0.0 0.0 0.00 1.10 1.10 83 1013.0
20260904001526 80 96 0.0 1.0 0.00 1.10 1.10 82 1012.9
20260904000113 80 96 0.0 0.0 0.00 1.10 1.10 82 1012.7
20260903234520 81 354 0.0 0.0 0.00 1.10 1.10 80 1012.4
20260903233126 82 231 0.0 1.0 0.00 1.10 1.10 78 1012.4
20260903231536 83 137 0.0 1.0 0.00 1.10 1.10 77 1012.3
20260903230001 83 188 0.0 2.0 0.00 1.10 1.10 75 1012.1
20260903224547 84 355 0.0 1.0 0.00 1.10 1.10 74 1012.0
20260903223024 85 168 0.0 3.0 0.00 1.10 1.10 74 1012.0
20260903221559 85 64 0.0 3.0 0.00 1.10 1.10 74 1012.1
20260903220025 85 186 1.0 3.0 0.00 1.10 1.10 75 1012.0
20260903214606 85 85 0.0 5.0 0.00 1.10 1.10 75 1012.2
20260903213044 85 78 1.0 5.0 0.00 1.10 1.10 76 1012.1
20260903211612 85 179 1.0 4.0 0.00 1.10 1.10 76 1012.3
20260903210057 86 164 0.0 4.0 0.00 1.10 1.10 76 1012.3
20260903204506 86 72 1.0 4.0 0.00 1.11 1.10 75 1012.5
20260903203041 85 131 1.0 5.0 0.00 1.11 1.10 76 1012.3
20260903201515 86 68 1.0 6.0 0.00 1.11 1.10 74 1012.5
20260903200049 86 169 1.0 4.0 0.00 1.11 1.10 74 1012.7
20260903194534 86 53 0.0 7.0 0.00 1.12 1.10 72 1013.1
20260903193103 87 72 1.0 5.0 0.00 1.12 1.10 72 1013.2
20260903191529 87 354 0.0 4.0 0.00 1.12 1.10 74 1013.5
20260903190110 87 194 1.0 4.0 0.00 1.12 1.10 73 1013.5
20260903184548 87 352 1.0 3.0 0.00 1.12 1.10 73 1013.6
20260903183009 86 152 1.0 4.0 0.00 1.12 1.10 74 1013.8
20260903181550 87 167 2.0 5.0 0.00 1.12 1.10 73 1013.9
20260903180026 86 70 1.0 6.0 0.00 1.12 1.10 74 1013.7
20260903174602 87 166 1.0 4.0 0.00 1.12 1.10 74 1014.1
20260903173034 86 36 1.0 4.0 0.00 1.12 1.10 76 1014.6
20260903171505 85 159 0.0 4.0 0.00 1.12 1.10 78 1014.8
20260903170053 85 138 1.0 4.0 0.00 1.12 1.10 76 1015.0
20260903164510 86 117 1.0 4.0 0.00 1.12 1.10 74 1015.2
20260903163056 86 88 1.0 5.0 0.00 1.12 1.10 75 1015.1
20260903161531 85 165 4.0 9.0 0.00 1.12 1.10 74 1014.9
20260903160109 85 169 1.0 9.0 0.00 1.12 1.10 76 1015.1
20260903154538 84 161 3.0 8.0 0.00 1.12 1.10 76 1015.0
20260903153006 83 91 2.0 10.0 0.00 1.12 1.10 79 1014.9
20260903151549 83 66 2.0 9.0 0.00 1.12 1.10 79 1014.6
20260903150019 82 142 3.0 9.0 0.00 1.12 1.10 81 1014.4
20260903144554 81 184 2.0 8.0 0.00 1.12 1.10 83 1014.4
20260903143020 79 158 3.0 6.0 0.00 1.12 1.10 87 1014.5
20260903141611 77 159 3.0 6.0 0.00 1.12 1.10 91 1014.6
20260903140038 75 69 1.0 8.0 0.01 1.12 1.10 91 1014.3